Vorticity
7 6 6 6 9 8 8 8 7 9 10 11 10 10 10 10 11 11 11 12 13 13
6 6 6 10 9 8 7 8 10 10 9 9 10 11 13 12 12 10 11 12 13 12
7 7 10 9 8 7 9 10 10 10 10 11 13 15 13 11 10 11 12 13 12 13
9 10 9 7 7 9 11 10 11 13 14 17 16 13 11 11 12 13 12 12 12 12
10 8 7 8 10 10 11 13 13 15 15 14 11 10 12 13 12 12 13 12 12 10
8 7 9 9 10 12 13 14 14 14 12 11 11 13 14 13 14 12 12 9 9 11
7 9 9 11 13 13 13 14 11 10 10 12 14 14 14 13 12 11 9 11 14 18
10 9 11 13 12 12 12 9 9 10 12 14 14 14 12 11 11 9 9 11 14 12
9 12 13 12 12 11 9 9 10 13 14 13 14 12 11 13 10 8 10 12 14 15
11 12 12 12 11 8 9 10 14 14 12 13 14 13 15 11 10 10 12 13 16 16
12 12 11 11 9 10 10 13 14 10 13 13 15 15 12 12 13 11 11 13 12 15
12 11 11 8 10 9 12 14 11 13 12 15 16 12 14 14 9 10 12 10 12 16
10 11 7 10 8 11 13 12 11 13 14 16 16 15 10 7 10 12 9 10 12 22
12 8 10 9 10 13 12 12 12 13 15 17 13 14 9 11 14 9 8 10 17 22
Height
3061 3057 3053 3048 3043 3037 3032 3026 3021 3015 3009 3003 2997 2992 2987 2980 2977 2972 2966 2961 2955 2950
3053 3049 3045 3040 3034 3027 3021 3015 3008 3001 2995 2990 2984 2978 2972 2966 2961 2957 2952 2947 2942 2936
3046 3042 3036 3030 3024 3017 3011 3004 2999 2992 2985 2979 2972 2966 2959 2953 2949 2943 2938 2933 2929 2924
3036 3032 3026 3020 3013 3007 3001 2994 2987 2980 2973 2967 2961 2954 2947 2943 2937 2931 2926 2921 2915 2910
3026 3021 3015 3009 3003 2996 2989 2983 2976 2969 2962 2956 2949 2943 2937 2931 2926 2919 2913 2908 2902 2896
3016 3011 3005 2999 2993 2986 2979 2973 2966 2960 2953 2945 2939 2933 2927 2920 2913 2907 2901 2895 2889 2883
3007 3002 2995 2989 2983 2977 2970 2964 2958 2950 2942 2935 2930 2922 2914 2908 2901 2896 2890 2884 2877 2871
2999 2993 2986 2980 2974 2967 2962 2955 2948 2940 2933 2928 2919 2911 2903 2896 2891 2884 2878 2871 2861 2853
2989 2985 2978 2972 2966 2959 2954 2946 2938 2932 2924 2916 2909 2902 2895 2889 2880 2873 2866 2857 2851 2845
2981 2975 2970 2964 2958 2952 2944 2938 2931 2924 2916 2908 2900 2893 2888 2881 2872 2864 2857 2848 2840 2832
2973 2968 2963 2958 2951 2944 2936 2930 2923 2915 2908 2900 2894 2885 2878 2870 2863 2855 2846 2838 2829 2821
2965 2961 2956 2950 2943 2937 2930 2924 2915 2906 2898 2891 2887 2878 2870 2861 2851 2843 2835 2826 2819 2811
2959 2953 2949 2942 2937 2929 2921 2915 2908 2900 2892 2884 2878 2871 2862 2852 2843 2833 2824 2816 2806 2799
2952 2947 2942 2937 2931 2923 2915 2909 2901 2895 2888 2880 2869 2861 2854 2847 2836 2824 2812 2803 2793 2786